Vorticity
nan nan nan nan nan nan nan nan nan nan nan nan nan nan nan nan nan nan nan nan nan nan nan nan nan nan nan nan nan nan nan nan nan nan nan nan nan nan
nan 10 7 9 8 10 9 10 10 9 13 11 8 9 10 8 9 8 8 1 2 7 7 6 7 8 8 9 9 9 9 9 9 8 9 10 10 nan
nan 9 10 7 8 8 9 10 12 12 8 9 12 8 9 9 8 6 6 8 2 3 8 6 7 7 8 9 9 8 9 9 9 9 9 10 9 nan
nan 9 6 9 10 8 9 9 8 13 13 10 7 8 8 7 7 6 7 8 6 5 4 6 6 7 7 8 9 9 9 8 9 9 9 10 9 nan
nan 9 8 9 7 8 9 9 8 10 11 9 8 9 8 9 7 5 8 8 9 7 5 1 -1 5 6 6 8 9 9 9 8 8 9 9 9 nan
nan 10 10 9 10 9 7 9 9 9 9 9 9 9 8 7 8 11 8 5 8 10 8 5 4 -0 0 5 5 8 9 9 8 8 8 8 9 nan
nan 9 12 11 10 10 13 11 8 7 8 8 8 9 10 9 8 8 10 10 5 8 6 8 8 5 4 3 3 5 7 8 9 8 7 8 8 nan
nan 8 10 11 7 6 8 14 18 15 10 7 9 8 10 10 9 8 10 9 7 9 6 8 8 10 7 1 2 6 7 8 7 8 7 5 6 nan
nan 10 7 9 10 7 7 8 7 9 18 19 13 11 10 8 9 10 8 10 9 10 11 6 7 8 7 4 5 6 7 6 8 8 9 8 4 nan
nan 12 12 11 11 12 6 5 7 7 10 18 17 14 14 13 6 8 10 9 9 5 13 8 9 8 9 6 2 5 7 5 7 8 10 13 10 nan
nan 11 10 13 14 7 8 8 5 6 10 11 10 10 8 12 18 14 10 8 7 4 11 10 11 9 8 6 6 4 2 4 6 7 7 9 16 nan
nan 10 11 12 10 5 6 7 7 8 6 5 4 4 5 9 11 16 16 12 12 9 8 9 9 13 11 5 6 7 5 7 8 4 5 4 18 nan
nan 8 13 15 9 4 4 10 13 11 7 6 6 7 6 5 7 9 12 16 13 11 11 11 11 11 8 10 9 6 9 9 8 7 3 5 8 nan
nan 11 18 15 8 4 6 14 13 6 7 8 8 9 8 8 8 8 9 10 11 13 11 13 10 11 13 11 8 10 8 9 9 9 7 6 9 nan
nan 17 16 11 5 7 13 9 1 5 8 9 9 10 10 9 8 8 7 8 7 7 8 12 13 10 10 12 9 8 10 10 8 10 9 9 9 nan
nan 13 10 9 7 8 8 4 5 9 10 9 9 10 11 9 8 8 7 7 6 7 7 8 10 10 10 8 9 9 10 8 10 10 10 10 9 nan
nan 9 9 8 9 8 9 8 8 9 9 10 10 10 9 9 10 10 9 8 9 9 8 8 6 7 8 12 11 8 8 9 9 8 11 10 9 nan
nan 10 9 9 9 9 9 9 11 10 10 10 10 10 10 10 10 9 10 10 11 9 9 10 9 11 9 4 8 12 9 9 9 9 10 10 9 nan
nan 11 10 10 10 10 10 11 11 11 10 10 11 10 10 10 10 10 10 10 10 11 10 9 9 9 9 10 9 9 12 9 10 10 10 10 9 nan
nan 10 11 11 10 11 11 11 11 11 10 10 11 11 11 10 10 10 10 11 11 10 10 9 11 12 8 11 9 10 13 12 11 10 9 10 17 nan
nan 10 10 11 11 11 11 11 11 10 10 10 10 11 11 11 10 10 9 9 12 13 10 10 9 9 13 12 11 9 9 9 6 8 11 12 13 nan
nan 10 11 11 11 11 11 11 11 10 10 9 10 11 11 11 11 11 11 11 9 9 10 12 10 8 9 7 10 12 9 8 13 12 6 8 11 nan
nan nan nan nan nan nan nan nan nan nan nan nan nan nan nan nan nan nan nan nan nan nan nan nan nan nan nan nan nan nan nan nan nan nan nan nan nan nan
CAPE
0 0 0 0 0 0 0 0 0 0 0 9 7 4 2 6 0 2 0 3 3 3 5 10 16 14 17 12 20 31 26 33 29 45 45 46 57 60
0 0 0 0 0 0 0 0 0 0 0 0 6 4 0 0 0 2 0 1 0 2 4 7 8 13 11 11 12 13 23 22 28 35 45 47 53 56
0 0 0 0 0 0 0 0 0 0 0 8 7 7 0 2 3 0 0 0 4 1 3 2 7 9 6 8 8 11 12 19 22 23 35 41 56 61
0 0 0 0 0 0 0 0 0 0 0 3 8 7 3 4 9 3 0 0 0 0 1 3 7 6 5 7 5 8 10 14 13 16 16 25 45 60
0 0 0 0 0 0 2 3 1 0 3 4 7 7 5 2 7 7 1 0 0 0 0 0 1 7 10 7 7 7 6 10 13 10 13 13 21 36
0 0 0 0 0 0 3 7 1 0 2 4 1 2 1 0 0 0 2 0 0 0 0 0 0 0 6 9 6 7 6 7 9 14 9 10 11 21
0 0 0 0 0 1 0 1 1 0 0 0 0 0 1 1 3 0 0 1 1 0 0 0 0 0 6 8 11 10 7 7 7 7 11 10 11 11
0 0 0 0 0 0 0 0 0 0 0 0 0 0 1 1 2 1 0 3 6 7 8 2 0 0 1 10 14 7 5 11 7 6 6 8 9 10
0 0 0 0 0 0 0 0 0 0 0 0 0 0 0 0 0 0 0 0 0 0 2 5 0 4 2 3 6 5 5 5 5 7 4 4 4 5
7 1 4 2 0 0 0 0 0 0 0 1 1 1 0 0 0 0 0 0 0 2 1 1 9 11 7 7 0 4 3 2 4 4 6 3 2 1
14 13 15 16 0 0 1 1 5 5 1 0 0 0 0 0 0 0 0 0 1 8 9 10 12 12 15 18 12 0 0 1 2 3 4 5 2 0
9 15 1 8 0 0 2 2 3 7 5 1 0 0 0 0 0 1 0 0 4 16 6 14 10 10 27 13 15 19 23 0 0 3 3 4 1 6
4 9 8 1 0 0 1 14 8 15 4 5 6 8 9 6 5 6 9 7 7 9 1 11 5 11 11 10 15 15 20 21 25 19 4 3 2 3
9 5 17 0 1 0 0 0 0 2 10 10 12 15 14 9 8 5 4 5 3 5 1 6 6 5 6 9 7 8 12 20 22 24 24 8 2 0
5 11 1 0 3 2 0 0 0 5 8 8 11 16 18 14 6 4 3 2 3 2 1 0 3 2 4 3 2 7 12 10 17 21 22 21 20 20
2 6 8 5 4 8 7 2 4 8 9 10 11 13 7 4 1 2 2 2 1 2 0 0 0 0 2 0 1 4 4 6 10 12 12 14 15 19
11 9 12 13 11 10 8 9 10 11 10 13 11 6 1 0 0 0 1 0 0 2 4 2 0 0 0 0 5 3 4 6 8 6 3 8 10 10
4 5 10 14 9 7 9 10 12 8 8 8 7 4 3 1 0 0 0 0 2 0 0 0 0 2 3 1 0 5 7 5 6 4 3 7 8 7
3 8 10 9 8 5 5 6 9 10 6 6 4 4 4 2 0 0 0 0 0 0 0 0 0 0 2 10 2 0 3 6 7 8 5 7 6 4
6 5 9 9 9 3 3 3 3 7 6 3 5 7 11 7 5 2 2 3 1 0 0 0 0 0 1 9 9 5 0 1 9 9 7 3 2 0
7 6 6 5 6 2 4 3 7 10 8 9 10 11 16 7 8 5 3 0 0 0 0 0 0 0 0 0 8 12 2 0 0 0 1 0 0 0
3 3 5 7 9 8 9 11 14 17 15 17 20 18 16 12 8 5 7 9 0 0 0 0 0 0 0 0 1 3 3 3 0 0 0 0 1 3
6 4 9 12 14 15 7 12 10 15 15 17 17 18 17 10 4 8 11 5 3 0 0 0 0 0 0 0 0 1 0 0 1 0 0 0 0 0